#timestamp,LO_Frequency,Hit,StdDev 
1702526415.7,286047000.3,N
1702526435.5,286047001.2,N
1702526455.3,286046998.7,N
1702526475.2,286046999.4,N
1702526495.0,286046996.9,N
1702526495.9,286046996.9,N
1702526515.8,286046998.4,N
1702526535.6,286046998.2,N
1702526555.4,286046999.3,N
1702526575.3,286047000.5,N
1702526595.1,286047000.2,N
1702526615.9,286047000.7,N
1702526635.7,286047000.7,N
1702526685.6,286047000.2,E
1702526695.5,286047002.7,N
1702526715.3,286047000.0,P
1702526735.2,286047001.0,N
1702526755.0,286047000.5,N
1702526755.9,286047000.5,N
1702526775.8,286047001.1,N
1702526795.6,286046998.4,N
1702526815.4,286046999.1,N
1702526835.3,286046999.0,N
1702526855.1,286046996.6,N
1702526875.8,286046998.5,N
1702526895.7,286047000.3,N
1702526915.5,286047001.0,N
1702526935.3,286047002.4,N
1702526955.2,286047000.2,N
1702526975.0,286047002.4,N
1702526975.9,286047002.4,N
1702526995.8,286047002.5,N
1702527015.6,286047000.2,N
1702527035.4,286047002.5,N
1702527055.3,286047000.8,N
1702527075.1,286047000.9,N
1702527095.9,286047000.7,N
1702527115.7,286047000.3,N
1702527135.5,286047001.0,N
1702527155.4,286046998.6,N
1702527175.2,286046998.7,N
1702527195.0,286046998.4,N
1702527195.9,286046998.4,N
1702527215.8,286046998.1,N
1702527235.6,286047001.4,N
1702527255.5,286047003.9,N
1702527275.3,286047002.5,N
1702527295.1,286046999.9,N
1702527315.9,286047000.8,N
1702527335.7,286047001.2,N
1702527355.5,286046999.7,N
1702527375.4,286046998.1,N
1702527395.2,286046998.1,N
1702527415.1,286047001.0,N
1702527435.4,286047000.5,N
1702527455.3,286047000.7,N
1702527475.1,286047000.0,N
1702527495.8,286047000.2,N
1702527515.7,286047000.6,N
1702527535.5,286046998.1,N
1702527555.4,286046998.2,N
1702527575.2,286046998.3,N
1702527595.0,286047000.8,N
1702527595.9,286047000.8,N
1702527615.8,286047000.9,N
1702527635.6,286046998.1,N
1702527655.5,286046999.0,N
1702527675.3,286046998.1,N
1702527695.1,286046998.3,N
1702527715.9,286047001.0,N
1702527735.7,286047002.8,N
1702527755.5,286046999.8,N
1702527775.4,286047000.9,N
1702527795.2,286046999.7,N
1702527815.1,286046999.8,N
1702527816.0,286046999.8,N
1702527835.8,286047001.7,N
1702527855.6,286047004.4,Y
1702527875.5,286047004.0,P
1702527895.3,286047002.3,N
1702527915.1,286047002.8,N
1702527935.9,286047000.3,N
1702527955.7,286047000.6,N
1702527975.6,286047000.4,N
1702527995.4,286047001.0,N
1702528015.2,286047002.8,N
1702528035.1,286047001.9,N
1702528036.0,286047001.9,N
1702528055.8,286047000.9,N
1702528075.6,286047000.0,N
1702528095.5,286046998.1,N
1702528115.3,286047000.5,N
1702528135.2,286047002.6,N
1702528155.9,286047002.5,N
1702528175.7,286047002.7,N
1702528195.6,286047002.7,N
1702528215.4,286047000.4,N
1702528235.2,286047000.0,N
1702528255.1,286047000.4,N
1702528256.0,286047000.4,N
1702528275.8,286047000.8,N
1702528295.7,286047000.7,N
1702528315.5,286047000.7,N
1702528335.3,286047000.8,N
1702528355.2,286046999.4,N
1702528375.0,286046999.4,N
1702528375.9,286046999.4,N
1702528395.8,286046998.4,N
1702528415.6,286046998.8,N
1702528435.4,286046998.3,N
1702528455.3,286047000.6,N
1702528475.1,286046998.3,N
1702528495.8,286047000.8,N
1702528515.7,286047001.1,N
1702528535.5,286047002.7,N
1702528555.3,286047002.5,N
1702528575.2,286047002.8,N
1702528595.0,286047000.8,N
1702528595.9,286047000.8,N
1702528615.8,286047001.2,N
1702528635.6,286046998.9,N
1702528655.4,286047000.1,N
1702528675.3,286047000.5,N
1702528695.1,286046998.7,N
1702528715.9,286046999.2,N
1702528735.7,286046998.6,N
1702528755.5,286047000.3,N
1702528775.4,286047000.4,N
1702528795.2,286047001.0,N
1702528815.0,286046999.7,N
1702528816.0,286046999.7,N
1702528835.8,286047000.2,N
1702528855.6,286047000.9,N
1702528875.5,286046998.6,N
1702528895.3,286046999.2,N
1702528915.1,286046998.5,N
1702528935.9,286046999.9,N
1702528955.7,286047002.0,N
1702528975.6,286047002.2,N
1702528995.4,286047002.4,N
1702529015.3,286047001.7,N
1702529035.1,286047004.0,N
1702529036.0,286047004.0,N
1702529055.8,286047004.4,N
1702529075.7,286047003.8,N
1702529095.5,286047003.8,N
1702529115.4,286047001.7,N
1702529135.2,286047003.8,N
1702529155.0,286047002.5,N
1702529155.9,286047002.5,N
1702529175.8,286047000.4,N
1702529195.6,286047000.9,N
1702529215.4,286047000.4,N
1702529235.3,286047000.1,N
1702529255.1,286047000.2,N
1702529275.9,286047001.5,N
1702529295.7,286047002.0,N
1702529315.5,286047002.3,N
1702529335.4,286047000.2,N
1702529355.2,286047000.6,N
1702529375.0,286046999.9,N
1702529376.0,286046999.9,N
1702529395.8,286047000.9,N
1702529415.6,286047000.3,N
1702529435.5,286047000.4,N
1702529455.3,286046999.7,N
1702529475.1,286047000.4,N
1702529495.9,286046999.7,N
1702529515.7,286047000.6,N
1702529535.6,286047000.1,N
1702529555.4,286047000.1,N
1702529575.2,286047002.5,N
1702529595.1,286047002.1,N
1702529596.0,286047002.1,N
1702529615.8,286047000.8,N
1702529635.6,286046998.9,N
1702529655.5,286047000.7,N
1702529675.3,286046998.5,N
1702529695.2,286046999.9,N
1702529715.9,286047001.1,N
1702529735.7,286047001.2,N
1702529755.6,286047000.7,N
1702529775.4,286047000.9,N
1702529795.2,286047000.3,N
1702529815.1,286047000.1,N
1702529816.0,286047000.1,N
1702529835.8,286047002.1,N
1702529855.7,286047002.6,N
1702529875.8,286047002.1,N
1702529895.7,286047004.0,Y
1702529915.5,286047002.0,P
1702529935.3,286047002.2,P
1702529955.2,286047002.1,N
1702529975.0,286046999.8,N
1702529975.9,286046999.8,N
1702529995.8,286047000.4,N
